Flag for Germany Weather past 2 weeks in Leimen, Baden-Württemberg, Germany

Now
68 °F

Scattered showers. Broken clouds.


Feels Like: 68 °F
Forecast: 48 / 65 °F
Wind: 8 mph from Southwest

Location: Baden Wurttemberg - Neuostheim

Current Time: Apr 26, 2015 at 2:23:40 PM

Latest Report: Apr 26, 2015 at 1:50 PM


Visibility: N/A

Pressure: 29.74 "Hg

Humidity: 49%

Dew point: 48 °F

Location of LeimenLocation

Historic Weather in Leimen — Graph

°F

Leimen temperature yesterday

Maximum temperature yesterday: 64 °F (at 1:50 PM)
Minimum temperature yesterday: 54 °F (at 7:20 AM)
Average temperature yesterday: 59 °F

Past Weeks' High & Low Weather Summary

 TemperatureHumidityPressure
High79 °F (Apr 15, 4:20 PM)94% (Apr 26, 7:50 AM)30.45 "Hg (Apr 26, 7:50 AM)
Low37 °F (Apr 23, 5:50 AM)19% (Apr 15, 8:20 PM)29.77 "Hg (Apr 26, 12:50 PM)
Average59 °F48%30.15 "Hg
* Reported Apr 11 12:20 PM — Apr 26 12:50 PM, Leimen, Weather by CustomWeather, © 2015

Note: Actual official high and low records may vary slightly from our data, if they occured in-between our weather recording intervals... More about our weather records

Advertising

Leimen weather history for previous 24 hours

 ConditionsComfort  
Time TempWeatherWind HumidityBarometerVisibility
12:50 PM
Sun, Apr 26
68 °FScattered clouds.6 mph56%29.77 "HgN/A
12:20 PM64 °FPassing clouds.7 mph60%29.80 "HgN/A
11:50 AM64 °FScattered clouds.8 mph60%29.80 "HgN/A
11:20 AM64 °FScattered clouds.7 mph60%29.80 "HgN/A
10:50 AM63 °FPartly sunny.6 mph68%29.80 "HgN/A
10:20 AM61 °FPartly sunny.6 mph72%29.80 "HgN/A
9:50 AM61 °FPartly sunny.5 mph77%29.80 "HgN/A
9:20 AM59 °FPartly sunny.5 mph88%29.83 "HgN/A
8:50 AM57 °FOvercast.5 mph88%29.83 "HgN/A
8:20 AM57 °FPartly sunny.5 mph88%29.83 "HgN/A
7:50 AM55 °FBroken clouds.5 mph94%29.83 "HgN/A
8:20 PM
Sat, Apr 25
59 °FPassing clouds.6 mph82%29.83 "HgN/A
7:50 PM59 °FPassing clouds.5 mph82%29.83 "HgN/A
7:20 PM59 °FPartly sunny.7 mph82%29.83 "HgN/A
6:50 PM59 °FBroken clouds.6 mph82%29.83 "HgN/A
6:20 PM59 °FLight rain. Partly sunny.6 mph82%29.83 "HgN/A
5:50 PM61 °FLight rain. Partly sunny.5 mph77%29.83 "HgN/A
5:20 PM61 °FLight rain. Partly sunny.7 mph72%29.83 "HgN/A
4:50 PM63 °FLight rain. Partly sunny.7 mph64%29.83 "HgN/A
4:20 PM63 °FBroken clouds.7 mph59%29.83 "HgN/A
3:50 PM63 °FLight rain. Broken clouds.7 mph64%29.83 "HgN/A
3:20 PM64 °FLight rain. Partly sunny.10 mph56%29.83 "HgN/A
2:50 PM64 °FLight rain. Partly sunny.8 mph56%29.83 "HgN/A
2:20 PM64 °FPartly sunny.6 mph56%29.83 "HgN/A
Weather by CustomWeather, © 2015

See weather overviewHow to use our weather pages